[[{"header":{"parameterUnit":"m.s-1","parameterCategory":1,"la1":30.2991,"la2":30.254,"lo1":-89.0895,"lo2":-89.0444,"dy":0.0017,"dx":0.0017,"nx":28,"ny":28,"refTime":"2023-08-14T03:00:00:Z","depth":0,"parameterNumber":2,"parameterNumberName":"U-component_of_WINDS"},"data":[0,0,0,0,0,0,0,0,0,0,0,0,0,0,0,0,0,0,0,0,0,0,0,0,0,0,0,0,0,0,0,0,0,0,0,0,0,0,0,0,0,0,0,0,0,0,0,0,0,0,0,0,0,0,0,0,0,0,1.5555,1.5557,0,1.5671,1.5672,1.5673,1.5682,1.5681,1.5679,1.5678,1.5799,1.5803,1.5808,0,0,0,0,0,0,0,0,0,0,0,0,0,1.5344,1.5348,1.5555,1.5557,1.5558,1.5671,1.5672,1.5674,1.5682,1.5681,1.5679,1.5678,1.5798,1.5803,1.5808,0,0,0,0,0,0,0,0,0,0,0,0,0,1.5446,1.535,1.5555,1.5576,1.5579,1.567,1.5672,1.5674,1.5683,1.5681,1.5679,1.5677,1.5796,1.5802,1.5809,1.5888,0,0,1.5829,1.5832,0,0,0,0,0,0,0,0,1.544,1.5453,1.5571,1.5575,1.5578,1.566,1.5642,1.5746,1.5683,1.5643,1.5678,1.5676,1.5755,1.5764,1.579,1.5894,1.5899,1.583,1.5834,1.5837,1.5838,0,0,0,0,0,0,0,1.5433,1.5448,1.5601,1.5573,1.5577,1.558,1.5592,1.5662,1.5708,1.5647,1.5647,1.5661,1.5756,1.5784,1.5793,1.5901,1.583,1.5835,1.584,1.5842,1.6075,1.6077,0,0,0,0,0,0,1.5422,1.5443,1.5597,1.5604,1.5503,1.5586,1.5599,1.5636,1.5708,1.5717,1.5662,1.5661,1.5774,1.5786,1.5798,1.5894,1.5837,1.5843,1.5847,1.6073,1.6075,1.6078,0,0,0,0,0,0,1.5417,1.5435,1.5593,1.5524,1.5544,1.5591,1.5632,1.5639,1.5667,1.572,1.5728,1.5682,1.5773,1.5788,1.5865,1.5898,1.5846,1.5852,1.607,1.6073,1.6076,1.6088,0,0,0,0,0,0,1.5411,1.5434,1.5463,1.5524,1.5548,1.5658,1.5634,1.5643,1.5678,1.5677,1.574,1.5749,1.5772,1.5855,1.5872,1.5907,1.5857,1.6067,1.6071,1.6075,1.6085,1.6091,1.6097,0,0,0,0,0,1.5403,1.5463,1.5465,1.5484,1.5586,1.5659,1.5673,1.5698,1.5681,1.5711,1.5745,1.5747,1.5893,1.5863,1.5882,1.5919,1.6065,1.607,1.6075,1.6082,1.609,1.6097,0,0,0,0,0,0,1.5405,1.5471,1.5474,1.5555,1.5601,1.5661,1.57,1.5705,1.5758,1.5755,1.5785,1.5799,1.5875,1.5905,1.5871,1.5999,1.5977,1.5986,1.5976,1.5984,1.599,1.598,1.5862,0,0,0,0,0,1.5415,1.5468,1.5524,1.559,1.5613,1.5653,1.5686,1.5701,1.575,1.577,1.581,1.5858,1.5915,1.5952,1.6007,1.609,1.6104,1.6125,1.6131,1.6136,1.6143,1.6188,1.6198,1.6094,1.6094,1.6094,0,0,1.5436,1.5479,1.551,1.5591,1.5629,1.5684,1.5669,1.5728,1.5769,1.5779,1.5853,1.5885,1.5941,1.6021,1.6059,1.6049,1.6175,1.6142,1.6145,1.615,1.6194,1.6204,1.6213,1.6097,1.6097,1.6096,0,0,1.5501,1.5539,1.5598,1.5636,1.5693,1.5719,1.5733,1.5792,1.5813,1.5888,1.5896,1.5947,1.6044,1.6083,1.6116,1.6197,1.6201,1.6215,1.6246,1.629,1.6298,1.6305,1.6333,1.6342,1.6222,1.6222,1.6222,0,1.552,1.5602,1.5628,1.5686,1.5721,1.5733,1.5792,1.5829,1.5901,1.5925,1.5914,1.6035,1.6075,1.6163,1.6183,1.621,1.6227,1.6207,1.6294,1.6302,1.6309,1.6336,1.6346,1.6223,1.6223,1.6223,1.6223,0,1.5622,1.5679,1.572,1.5788,1.5828,1.5887,1.5922,1.596,1.5972,1.6,1.6076,1.6124,1.6188,1.6211,1.6224,1.6302,1.6294,1.6288,1.6266,1.632,1.6345,1.6356,1.6225,1.6224,1.6224,1.6224,0,0,1.5689,1.5772,1.5786,1.5817,1.5881,1.5926,1.5987,1.6049,1.608,1.6131,1.6181,1.6263,1.6258,1.6296,1.6313,1.6352,1.6412,1.6342,1.6343,1.6352,1.65,1.6502,1.6514,1.6415,1.6418,1.6419,1.6494,0,1.576,1.5866,1.5891,1.5982,1.6035,1.6047,1.6099,1.6145,1.6172,1.6222,1.6254,1.631,1.63,1.6323,1.6362,1.6396,1.6442,1.6392,1.6462,1.6465,1.6445,1.6527,1.653,1.6598,1.6505,1.6506,1.6508,0,1.5857,1.5908,1.6003,1.6061,1.6084,1.613,1.6189,1.6237,1.6289,1.6306,1.6348,1.6362,1.6425,1.6402,1.6489,1.6454,1.6485,1.6507,1.651,1.6516,1.6488,1.6534,1.6621,1.6631,1.6524,1.6523,1.6522,0,1.5894,1.5988,1.6057,1.6083,1.6152,1.6184,1.6215,1.6265,1.6301,1.6353,1.6376,1.6436,1.6468,1.6514,1.6544,1.6524,1.6629,1.6608,1.6645,1.6644,1.6664,1.6662,1.6756,1.6688,1.6687,1.6687,1.6687,0,1.597,1.6027,1.6074,1.6116,1.6182,1.6211,1.6275,1.6306,1.635,1.6399,1.6415,1.646,1.6498,1.6549,1.6573,1.6641,1.6656,1.6672,1.6677,1.6669,1.6667,1.6688,1.6684,1.669,1.6689,1.6689,1.6688,0,1.6022,1.6056,1.6131,1.6191,1.6207,1.6252,1.6303,1.6345,1.6373,1.6435,1.6451,1.6497,1.6557,1.6592,1.6669,1.6685,1.6761,1.6765,1.6742,1.6744,1.6779,1.6774,1.6888,1.6904,1.6826,1.6827,1.6828,0,1.6066,1.6111,1.6175,1.6208,1.6239,1.6293,1.6329,1.636,1.6398,1.6461,1.6495,1.6557,1.6607,1.6704,1.6744,1.6803,1.6808,1.6844,1.6816,1.6807,1.6806,1.6802,1.6806,1.6847,1.6848,1.6849,1.6849,0,1.6141,1.6156,1.6208,1.6265,1.6308,1.6355,1.6402,1.6429,1.6468,1.651,1.6572,1.6611,1.6689,1.675,1.6812,1.6845,1.6853,1.6858,1.6869,1.686,1.6845,1.6852,1.6753,1.6854,1.6854,1.6853,1.6853,1.6853,1.619,1.623,1.6281,1.6338,1.6376,1.642,1.6461,1.6496,1.6547,1.6613,1.6629,1.6694,1.6746,1.683,1.6864,1.6915,1.6909,1.6926,1.693,1.6933,1.6933,1.6838,1.6927,1.6927,1.6927,1.6927,1.6927,0,1.6264,1.6298,1.635,1.6415,1.646,1.6464,1.6517,1.6554,1.6611,1.6658,1.6707,1.6779,1.6838,1.6883,1.6944,1.6976,1.6982,1.6991,1.6988,1.6995,1.6936,1.6919,1.6986,1.6986,1.6985,1.6985,1.6985,1.6985,1.6308,1.6375,1.6396,1.6483,1.6516,1.6579,1.6609,1.6649,1.6687,1.6765,1.6814,1.6843,1.689,1.6954,1.7009,1.7021,1.7042,1.705,1.7062,1.7006,1.6999,1.6993,1.6977,1.7055,1.7055,1.7117,1.7117,1.7118]},{"header":{"parameterUnit":"m.s-1","parameterCategory":1,"la1":30.2991,"la2":30.254,"lo1":-89.0895,"lo2":-89.0444,"dy":0.0017,"dx":0.0017,"nx":28,"ny":28,"refTime":"2023-08-14T03:00:00:Z","depth":0,"parameterNumber":3,"parameterNumberName":"V-component_of_WINDS"},"data":[0,0,0,0,0,0,0,0,0,0,0,0,0,0,0,0,0,0,0,0,0,0,0,0,0,0,0,0,0,0,0,0,0,0,0,0,0,0,0,0,0,0,0,0,0,0,0,0,0,0,0,0,0,0,0,0,0,0,4.5223,4.5222,0,4.5196,4.5196,4.5196,4.5169,4.5168,4.5168,4.5167,4.5139,4.5139,4.5138,0,0,0,0,0,0,0,0,0,0,0,0,0,4.5248,4.5248,4.5223,4.5222,4.5222,4.5197,4.5196,4.5196,4.5169,4.5168,4.5168,4.5167,4.5139,4.5139,4.5138,0,0,0,0,0,0,0,0,0,0,0,0,0,4.5231,4.5247,4.5223,4.5205,4.5204,4.5197,4.5196,4.5196,4.5169,4.5168,4.5168,4.5167,4.5139,4.5139,4.5138,4.5146,0,0,4.5136,4.5136,0,0,0,0,0,0,0,0,4.5232,4.523,4.5208,4.5207,4.5205,4.5185,4.5195,4.5179,4.5169,4.5182,4.5167,4.5167,4.5155,4.5153,4.5149,4.5144,4.5143,4.5136,4.5136,4.5136,4.5135,0,0,0,0,0,0,0,4.5233,4.5231,4.5212,4.5208,4.5206,4.5199,4.5195,4.5192,4.5172,4.5181,4.5179,4.5176,4.5154,4.515,4.5148,4.5143,4.5136,4.5136,4.5135,4.5135,4.5142,4.5142,0,0,0,0,0,0,4.5237,4.5232,4.5213,4.5211,4.5217,4.5199,4.5195,4.5192,4.5172,4.5168,4.5177,4.5175,4.5151,4.5149,4.5147,4.5154,4.5136,4.5135,4.5135,4.5141,4.5142,4.5142,0,0,0,0,0,0,4.5238,4.5236,4.5214,4.5221,4.5218,4.5199,4.5195,4.5192,4.5188,4.5169,4.5165,4.5176,4.5151,4.5148,4.5146,4.5152,4.5135,4.5134,4.5141,4.5141,4.5142,4.5167,0,0,0,0,0,0,4.5239,4.5236,4.5239,4.5222,4.5218,4.5214,4.5196,4.5192,4.5187,4.5185,4.5167,4.5164,4.515,4.5147,4.5145,4.5151,4.5134,4.514,4.5141,4.5142,4.5166,4.5169,4.5171,0,0,0,0,0,4.524,4.5247,4.5239,4.5237,4.5221,4.5214,4.5212,4.5196,4.5188,4.519,4.5178,4.5164,4.5152,4.5147,4.5145,4.5151,4.5139,4.5141,4.5142,4.5164,4.5168,4.5171,0,0,0,0,0,0,4.5265,4.5244,4.5235,4.5238,4.5228,4.521,4.5212,4.5201,4.5193,4.5191,4.5172,4.5168,4.5168,4.5159,4.5154,4.5156,4.5144,4.5145,4.5162,4.5165,4.5168,4.5169,4.5133,0,0,0,0,0,4.5271,4.5268,4.525,4.5253,4.5249,4.5232,4.5228,4.5217,4.5206,4.5202,4.5189,4.5179,4.5172,4.5169,4.5162,4.5165,4.516,4.5168,4.517,4.5173,4.5173,4.5173,4.5176,4.5146,4.5146,4.5146,0,0,4.5283,4.5271,4.527,4.5258,4.5249,4.5246,4.5228,4.5226,4.5223,4.5201,4.5198,4.5189,4.5176,4.5176,4.5176,4.5169,4.5181,4.5174,4.5177,4.5176,4.5175,4.5178,4.518,4.5147,4.5147,4.5147,0,0,4.5303,4.5294,4.5296,4.5288,4.5275,4.5263,4.5264,4.5247,4.524,4.5238,4.5221,4.5217,4.5207,4.5198,4.5192,4.5209,4.5196,4.5208,4.5222,4.5222,4.5224,4.5226,4.5231,4.5233,4.5209,4.5209,4.5209,0,4.5319,4.5313,4.5298,4.5296,4.5291,4.5272,4.5273,4.5266,4.5251,4.5248,4.5241,4.5227,4.5217,4.5215,4.5219,4.5215,4.5214,4.5209,4.5226,4.5227,4.5229,4.5233,4.5235,4.521,4.521,4.521,4.521,0,4.5334,4.533,4.5333,4.532,4.5315,4.5315,4.5298,4.5295,4.5285,4.5274,4.5271,4.5258,4.5248,4.5247,4.5237,4.5243,4.5239,4.5229,4.5216,4.5233,4.5237,4.5239,4.5212,4.5211,4.5211,4.5211,0,0,4.5367,4.5346,4.5347,4.5341,4.5326,4.5322,4.5321,4.5312,4.5309,4.53,4.5298,4.529,4.528,4.5274,4.5262,4.5263,4.5275,4.5252,4.5251,4.5256,4.528,4.5287,4.5289,4.5267,4.5268,4.5268,4.5281,0,4.5383,4.538,4.5366,4.5366,4.5363,4.5345,4.5344,4.5334,4.5324,4.5319,4.5308,4.5302,4.5291,4.5286,4.5286,4.5274,4.528,4.5273,4.5264,4.5263,4.5266,4.5291,4.5298,4.5311,4.5282,4.5282,4.5283,0,4.5401,4.5393,4.5394,4.5378,4.5376,4.5375,4.5366,4.5361,4.535,4.5343,4.5336,4.5323,4.532,4.5309,4.5303,4.5299,4.5295,4.5288,4.5288,4.5285,4.5273,4.5288,4.5315,4.5316,4.5285,4.5285,4.5285,0,4.5424,4.5414,4.5412,4.5408,4.539,4.539,4.5383,4.5371,4.5366,4.5357,4.5354,4.5345,4.534,4.5333,4.5318,4.5311,4.5314,4.5302,4.5307,4.5307,4.5307,4.5307,4.5332,4.5306,4.5306,4.5306,4.5306,0,4.5442,4.5442,4.5422,4.5421,4.5421,4.5406,4.5406,4.5397,4.5386,4.5383,4.5368,4.5364,4.5345,4.534,4.5328,4.5325,4.5323,4.5316,4.5313,4.5317,4.5318,4.5313,4.5311,4.5307,4.5307,4.5307,4.5307,0,4.5466,4.5453,4.5451,4.5435,4.5431,4.5431,4.5417,4.5415,4.5405,4.5401,4.5399,4.5382,4.5375,4.536,4.5348,4.534,4.5339,4.5334,4.5343,4.5341,4.5346,4.5345,4.5368,4.5369,4.5344,4.5345,4.5345,0,4.5478,4.5478,4.5463,4.546,4.5453,4.5448,4.5443,4.5428,4.5423,4.5411,4.541,4.5402,4.5394,4.5383,4.537,4.5361,4.5354,4.5363,4.5353,4.5356,4.5353,4.5352,4.5352,4.5365,4.5365,4.5365,4.5365,0,4.55,4.5494,4.5488,4.5479,4.5474,4.5467,4.5459,4.5457,4.5439,4.5435,4.5428,4.5422,4.5411,4.5402,4.5391,4.5383,4.5371,4.5369,4.5369,4.5373,4.5377,4.5374,4.5348,4.5368,4.5368,4.5368,4.5368,4.5367,4.5517,4.5517,4.5505,4.5499,4.5492,4.5484,4.5482,4.5471,4.5465,4.5455,4.5446,4.544,4.5428,4.5412,4.5404,4.5398,4.5393,4.5393,4.5393,4.5394,4.5395,4.538,4.5397,4.5396,4.5396,4.5396,4.5396,0,4.5537,4.553,4.5524,4.5513,4.5508,4.5499,4.5489,4.5486,4.548,4.5471,4.5464,4.5455,4.5447,4.5433,4.5424,4.5421,4.5416,4.5419,4.5418,4.5416,4.5401,4.5401,4.5424,4.5424,4.5424,4.5424,4.5424,4.5424,4.5547,4.5545,4.5537,4.5531,4.5523,4.5516,4.5512,4.5505,4.5497,4.5488,4.5482,4.5473,4.5461,4.5451,4.5443,4.5439,4.5435,4.5441,4.5435,4.542,4.5418,4.5415,4.5415,4.544,4.544,4.545,4.5451,4.5451]}]]